Regional Weather Roundup
Issued by NWS Boston, MA

Current Version | Previous Version | Text Only | Print | Product List | Glossary Off
Versions: 1 2 3 4 5 6 7 8 9 10 11 12 13 14 15 16 17 18 19 20 21 22 23 24 25 26 27 28

000
ASUS41 KBOX 230610
RWRBOX

REGIONAL WEATHER ROUNDUP
NATIONAL WEATHER SERVICE TAUNTON MA
200 AM EDT WED AUG 23 2017

NOTE:  "FAIR" INDICATES FEW OR NO CLOUDS BELOW 12,000 FEET WITH NO
SIGNIFICANT WEATHER AND/OR OBSTRUCTIONS TO VISIBILITY.

MAZALL-230700-
EASTERN MASSACHUSETTS

CITY           SKY/WX    TMP DP  RH WIND       PRES   REMARKS
BOSTON         LGT RAIN  75  72  90 S10       29.70F
6HR MIN TEMP:  74; 6HR MAX TEMP:  79; 6HR PCP:  0.02;

BEVERLY        LGT RAIN  75  73  93 SW6       29.70S FOG
LAWRENCE       LGT RAIN  75  71  87 S7        29.72F
BEDFORD        LGT RAIN  74  70  87 S6        29.67F
BLUE HILL        N/A     73  70  90 S16G25    29.72F
NORWOOD        LGT RAIN  76  73  91 S7        29.70F
MARSHFIELD     CLOUDY    77  72  83 SW10G22   29.72F
PLYMOUTH       CLOUDY    76  70  82 SW15G26   29.75F
TAUNTON        CLOUDY    75  71  87 SW9G20    29.73F
NEW BEDFORD    CLOUDY    75  72  90 SW21G31   29.75F
$$

MAZALL-230700-
CAPE COD AND THE ISLANDS

CITY           SKY/WX    TMP DP  RH WIND       PRES   REMARKS
FALMOUTH       CLOUDY    75  72  88 SW23G39   29.79F
HYANNIS        CLOUDY    76  73  91 SW20G30   29.77F
CHATHAM        CLOUDY    74  74 100 SW15G26   29.81S
PROVINCETOWN   CLOUDY    73  71  93 SW21G28   29.76F
NANTUCKET      CLOUDY    71  71 100 S20       29.82F
MARTHAS VNYRD  CLOUDY    74  71  91 SW18G26   29.79F
$$

MAZALL-230700-
CENTRAL AND WESTERN MASSACHUSETTS

CITY           SKY/WX    TMP DP  RH WIND       PRES   REMARKS
WORCESTER      CLOUDY    72  69  90 SW16G23   29.73S
6HR MIN TEMP:  72; 6HR MAX TEMP:  77; 6HR PCP:  0.21;

FITCHBURG      CLOUDY    74  71  91 S5        29.70F
ORANGE         CLOUDY    72  72 100 SE6       29.70F
SPRINGFIELD    CLOUDY    73  70  90 S15       29.69S
WESTFIELD      CLOUDY    73  72  96 S8        29.70F
NORTH ADAMS    CLOUDY    69  68  96 VRB5      29.71S
PITTSFIELD     CLOUDY    70  67  90 SW7       29.73S
$$

RIZALL-230700-
RHODE ISLAND

CITY           SKY/WX    TMP DP  RH WIND       PRES   REMARKS
PROVIDENCE     CLOUDY    77  74  90 SW15G25   29.74F
6HR MIN TEMP:  76; 6HR MAX TEMP:  77; 6HR PCP: TRACE;

NEWPORT        LGT RAIN  72  72 100 SW13G20   29.76F
BLOCK ISLAND   CLOUDY    72  71  97 SW18G25   29.78F
WESTERLY       LGT RAIN  76  73  91 SW12G22   29.76F
$$

CTZALL-230700-
CONNECTICUT

CITY           SKY/WX    TMP DP  RH WIND       PRES   REMARKS
BRADLEY INTL   CLOUDY    75  73  93 SW8       29.72S
6HR MIN TEMP:  75; 6HR MAX TEMP:  81; 6HR PCP:  0.39;

HARTFORD       CLOUDY    76  74  93 SW8       29.72S
BRIDGEPORT     LGT RAIN  74  72  93 SW9       29.75F
DANBURY        CLOUDY    73  70  90 SW8       29.77F
GROTON         LGT RAIN  75  71  87 W16G24    29.75F
NEW HAVEN      CLOUDY    74  71  91 SW9G18    29.76F
CHESTER        LGT RAIN  72  72 100 SW9G16    29.76F
MERIDEN        LGT RAIN  74  70  87 S8        29.75S
WILLIMANTIC    LGT RAIN  76  73  91 SW10G21   29.74S
OXFORD         LGT RAIN  72  70  93 SW7G17    29.78S
$$

MEZ002-015-021-024-NHZ003-005-008-011-012-014-VTZ005-008-230700-
NORTHERN NEW ENGLAND

CITY           SKY/WX    TMP DP  RH WIND       PRES   REMARKS
PORTLAND ME    RAIN      70  68  93 S9G22     29.67F FOG
6HR MIN TEMP:  70; 6HR MAX TEMP:  73; 6HR PCP:  0.59;

BANGOR ME      LGT RAIN  72  69  90 S12       29.60F FOG
CONCORD NH     CLOUDY    70  68  93 SE6       29.69S
MANCHESTER NH  LGT RAIN  72  68  87 S5        29.67F
NASHUA NH      CLOUDY    72  72 100 SE3       29.69F
PORTSMOUTH NH  LGT RAIN  71  69  95 SW6       29.68F
JAFFREY NH     LGT RAIN  71  71 100 S5        29.72F
KEENE NH         N/A    N/A N/A N/A MISG        N/A
BURLINGTON VT  CLOUDY    71  68  90 S9        29.60S
MT. WASHINGTON FOG       54  54 100 W45G53      N/A  VSB 0
$$

NYZ052-076-230700-
EASTERN NEW YORK

CITY           SKY/WX    TMP DP  RH WIND       PRES   REMARKS
ALBANY         MOCLDY    72  67  84 SW6       29.70S
6HR MIN TEMP:  70; 6HR MAX TEMP:  84; 6HR PCP:  0.33;

NEW YORK CITY  CLOUDY    75  73  93 SW10      29.76S
6HR MIN TEMP:  74; 6HR MAX TEMP:  85; 6HR PCP:  0.25;

$$

ANZALL-230700-
MARINE OBSERVATIONS

STATION/POSITION TIME  TEMP    WIND        PRES    VSBY  WAVE
                       AIR SEA DIR/SP/G                  HT/PER
                 (UTC) (F)     (DEG/KT/KT) (MB)    (MI)  (FT/S)
BOSTON BUOY      0550   71 67  190/ 14/ 16 1005.9F         2/ 4
BUZZARDS BAY     0500   72     210/ 29/ 31 1008.3R
NANTUCKET SOUND  0450   72 72  210/ 21/ 25 1008.8          3/ 4
MASS BAY-STELLWA 0504   71 65  190/ 17/ 19 1005.1R         4/ 5
ISLE OF SHOALS   0500   71     240/  8/ 11 1006.0R
S OF BLOCK IS    NOT AVBL
$$

......................KEY.........................
  SKY/WX - SKY CONDITION/PRESENT WEATHER
  TMP    - TEMPERATURE IN FAHRENHEIT
  DWPT   - DEWPOINT IN FAHRENHEIT
  RH     - RELATIVE HUMIDITY IN PERCENT
  WIND   - DIRECTION AND SPEED IN MPH
  PRES   - MEAN SEA LEVEL PRESSURE IN INCHES OF HG
  WCI    - WIND CHILL INDEX
  VSB    - VISIBILITY IN MILES
  HX     - HEAT INDEX
  TC     - TEMPERATURE IN CELSIUS
  VRB    - VARIABLE WIND DIRECTION
  N/A    - NOT AVAILABLE




USA.gov is the U.S. government's official web portal to all federal, state and local government web resources and services.